Powrót do katalogu

STARLINK-34332

AktywnyŁącznośćVLEO
NORAD 64213·PAYLOAD·🇺🇸 United States

Wystrzelony May 31, 2025 z Vandenberg Space Force Base

Loading…

Następne Przeloty (najbliższe 24 godziny)

TLE

ŚwieżeSource: CelesTrak SupGP

Epoka: Sep 14, 2026, 22:32 UTC

1 64213C 25117L   26257.93937500  .00028238  00000+0  83417-3 0  2575
2 64213  53.1579 237.4156 0001435  96.1555 312.1485 15.34380605    10

Śledź STARLINK-34332 w czasie rzeczywistym z AllMySat

Download on the App Store